Weather History for Claremore, OK

Change the Weather History Date:

Tuesday, February 11, 2014

  Actual Average (KTUL) Record (KTUL)
Temperature  
Mean Temperature 26 °F 41 °F  
Max Temperature 35 °F 52 °F 77 °F (1951)
Min Temperature 17 °F 30 °F -3 °F (1981)
Degree Days  
Heating Degree Days 39 24  
Month to date heating degree days 275  
Since 1 July heating degree days 2548  
Moisture  
Dew Point 10 °F    
Average Humidity 57    
Maximum Humidity 74    
Minimum Humidity 30    
Precipitation  
Precipitation 0.00 in 0.07 in 1.18 in (1977)
Month to date precipitation 0.64  
Year to date precipitation 2.30  
Sea Level Pressure  
Sea Level Pressure 30.37 in    
Wind  
Wind Speed 8 mph (NNE)    
Max Wind Speed 14 mph    
Max Gust Speed 18 mph    
Visibility 10 miles    
Events      
T = Trace of Precipitation, MM = Missing Value Source: NWS Daily Summary

Daily Weather History Graph

Daily Weather History Graph

Search for Another Location

Airport:

Trip Planner

Search our weather history database for the weather conditions in past years. The results will help you decide how hot, cold, wet, or windy it might be!

Date:

Astronomy

Feb. 11, 2014 Rise Set
Actual Time 7:13 AM CST 5:58 PM CST
Civil Twilight 6:47 AM CST 6:25 PM CST
Nautical Twilight 6:17 AM CST 6:55 PM CST
Astronomical Twilight 5:47 AM CST 7:25 PM CST
Moon 3:22 PM CST (2/11) 4:49 AM CST (2/11)
Length of Visible Light 11h 38m
Length of Day
10h 45m
Waxing Gibbous, 91% of the Moon is Illuminated
Feb 11
Waxing Gibbous
Feb 14
Full
Feb 22
Last Quarter
Mar 1
New
Mar 8
First Quarter

Hourly Weather History & Observations

Time (CST) Temp. Windchill Dew Point Humidity Pressure Visibility Wind Dir Wind Speed Gust Speed Precip Events Conditions
12:15 AM 21.2 °F 8.3 °F 10.4 °F 63% 30.42 in 10.0 mi NNE 13.8 mph - N/A   Clear
12:35 AM 21.2 °F 11.7 °F 10.4 °F 63% 30.43 in 10.0 mi NNE 8.1 mph - N/A   Scattered Clouds
12:55 AM 19.4 °F 9.5 °F 10.4 °F 68% 30.43 in 10.0 mi NNE 8.1 mph - N/A   Clear
1:15 AM 19.4 °F 10.4 °F 10.4 °F 68% 30.44 in 10.0 mi NNE 6.9 mph - N/A   Clear
1:35 AM 19.4 °F 8.6 °F 10.4 °F 68% 30.43 in 10.0 mi NNE 9.2 mph - N/A   Clear
1:55 AM 19.4 °F 9.5 °F 10.4 °F 68% 30.44 in 10.0 mi NNE 8.1 mph - N/A   Clear
2:15 AM 19.4 °F 9.5 °F 10.4 °F 68% 30.43 in 10.0 mi NNE 8.1 mph - N/A   Clear
2:35 AM 19.4 °F 7.9 °F 10.4 °F 68% 30.44 in 10.0 mi NNE 10.4 mph - N/A   Clear
2:55 AM 19.4 °F 7.9 °F 10.4 °F 68% 30.43 in 10.0 mi NNE 10.4 mph - N/A   Clear
3:15 AM 19.4 °F 7.2 °F 10.4 °F 68% 30.42 in 10.0 mi NNE 11.5 mph 18.4 mph N/A   Clear
3:35 AM 19.4 °F 9.5 °F 10.4 °F 68% 30.43 in 10.0 mi NNE 8.1 mph - N/A   Clear
3:55 AM 19.4 °F 7.9 °F 10.4 °F 68% 30.42 in 10.0 mi NNE 10.4 mph - N/A   Clear
4:15 AM 19.4 °F 8.6 °F 10.4 °F 68% 30.42 in 10.0 mi NNE 9.2 mph - N/A   Clear
4:35 AM 19.4 °F 9.5 °F 10.4 °F 68% 30.43 in 10.0 mi NNE 8.1 mph - N/A   Clear
4:55 AM 19.4 °F 11.5 °F 10.4 °F 68% 30.43 in 10.0 mi NNE 5.8 mph - N/A   Clear
5:15 AM 19.4 °F 10.4 °F 8.6 °F 63% 30.44 in 10.0 mi North 6.9 mph - N/A   Clear
5:35 AM 17.6 °F 6.4 °F 8.6 °F 68% 30.43 in 10.0 mi NNE 9.2 mph - N/A   Clear
5:55 AM 17.6 °F 4.3 °F 8.6 °F 68% 30.43 in 10.0 mi NNE 12.7 mph - N/A   Clear
6:15 AM 17.6 °F 5.7 °F 8.6 °F 68% 30.43 in 10.0 mi NNE 10.4 mph - N/A   Clear
6:35 AM 17.6 °F 6.4 °F 8.6 °F 68% 30.44 in 10.0 mi NNE 9.2 mph - N/A   Clear
6:55 AM 17.6 °F 9.3 °F 8.6 °F 68% 30.45 in 10.0 mi NNE 5.8 mph - N/A   Clear
7:15 AM 17.6 °F 6.4 °F 8.6 °F 68% 30.45 in 10.0 mi NNE 9.2 mph - N/A   Clear
7:35 AM 17.6 °F 8.2 °F 8.6 °F 68% 30.45 in 10.0 mi NNE 6.9 mph - N/A   Clear
7:55 AM 17.6 °F 6.4 °F 8.6 °F 68% 30.46 in 10.0 mi NNE 9.2 mph - N/A   Clear
8:15 AM 17.6 °F 5.0 °F 8.6 °F 68% 30.46 in 10.0 mi NNE 11.5 mph - N/A   Clear
8:35 AM 17.6 °F 6.4 °F 8.6 °F 68% 30.46 in 10.0 mi NNE 9.2 mph - N/A   Clear
8:55 AM 17.6 °F 8.2 °F 8.6 °F 68% 30.46 in 10.0 mi North 6.9 mph - N/A   Clear
9:15 AM 19.4 °F 11.5 °F 8.6 °F 63% 30.46 in 10.0 mi NNE 5.8 mph - N/A   Clear
9:35 AM 19.4 °F 10.4 °F 10.4 °F 68% 30.46 in 10.0 mi NNE 6.9 mph - N/A   Clear
9:55 AM 21.2 °F 12.6 °F 10.4 °F 63% 30.46 in 10.0 mi North 6.9 mph - N/A   Clear
10:15 AM 21.2 °F 11.7 °F 10.4 °F 63% 30.45 in 10.0 mi North 8.1 mph - N/A   Clear
10:35 AM 23.0 °F 13.9 °F 10.4 °F 59% 30.45 in 10.0 mi NNE 8.1 mph - N/A   Clear
10:55 AM 24.8 °F 15.3 °F 10.4 °F 54% 30.44 in 10.0 mi North 9.2 mph - N/A   Clear
11:15 AM 26.6 °F 16.8 °F 10.4 °F 51% 30.44 in 10.0 mi NE 10.4 mph - N/A   Clear
11:35 AM 28.4 °F 20.4 °F 10.4 °F 47% 30.44 in 10.0 mi NE 8.1 mph - N/A   Clear
11:55 AM 30.2 °F 21.9 °F 10.4 °F 44% 30.42 in 10.0 mi NNE 9.2 mph - N/A   Clear
12:15 PM 30.2 °F 25.4 °F 10.4 °F 44% 30.42 in 10.0 mi NNE 4.6 mph - N/A   Clear
12:35 PM 32.0 °F 25.6 °F 10.4 °F 41% 30.40 in 10.0 mi North 6.9 mph - N/A   Clear
12:55 PM 32.0 °F 23.6 °F 10.4 °F 41% 30.38 in 10.0 mi ENE 10.4 mph - N/A   Clear
1:15 PM 32.0 °F 24.8 °F 8.6 °F 38% 30.37 in 10.0 mi ENE 8.1 mph - N/A   Clear
1:35 PM 32.0 °F 24.2 °F 8.6 °F 38% 30.36 in 10.0 mi ENE 9.2 mph - N/A   Clear
1:55 PM 33.8 °F 26.4 °F 8.6 °F 35% 30.34 in 10.0 mi ENE 9.2 mph - N/A   Clear
2:15 PM 33.8 °F 27.7 °F 10.4 °F 38% 30.33 in 10.0 mi NE 6.9 mph - N/A   Clear
2:35 PM 33.8 °F 26.4 °F 8.6 °F 35% 30.32 in 10.0 mi NE 9.2 mph - N/A   Clear
2:55 PM 33.8 °F 27.7 °F 8.6 °F 35% 30.31 in 10.0 mi NNE 6.9 mph - N/A   Clear
3:15 PM 35.6 °F 29.9 °F 8.6 °F 33% 30.30 in 10.0 mi NE 6.9 mph - N/A   Clear
3:35 PM 35.6 °F 30.7 °F 8.6 °F 33% 30.29 in 10.0 mi NE 5.8 mph - N/A   Clear
3:55 PM 35.6 °F 29.2 °F 6.8 °F 30% 30.28 in 10.0 mi North 8.1 mph - N/A   Clear
4:15 PM 35.6 °F 30.7 °F 8.6 °F 33% 30.28 in 10.0 mi NE 5.8 mph - N/A   Clear
4:35 PM 35.6 °F 29.2 °F 8.6 °F 33% 30.27 in 10.0 mi North 8.1 mph - N/A   Clear
4:55 PM 35.6 °F 29.2 °F 8.6 °F 33% 30.27 in 10.0 mi North 8.1 mph - N/A   Clear
5:15 PM 33.8 °F 26.4 °F 8.6 °F 35% 30.28 in 10.0 mi NNE 9.2 mph - N/A   Clear
5:35 PM 33.8 °F 28.6 °F 8.6 °F 35% 30.28 in 10.0 mi North 5.8 mph - N/A   Clear
5:55 PM 32.0 °F 26.4 °F 10.4 °F 41% 30.28 in 10.0 mi NNE 5.8 mph - N/A   Clear
6:15 PM 30.2 °F 24.3 °F 10.4 °F 44% 30.28 in 10.0 mi NNE 5.8 mph - N/A   Clear
6:35 PM 28.4 °F 23.3 °F 10.4 °F 47% 30.28 in 10.0 mi NNE 4.6 mph - N/A   Clear
6:55 PM 28.4 °F 23.3 °F 10.4 °F 47% 30.28 in 10.0 mi NNE 4.6 mph - N/A   Clear
7:15 PM 28.4 °F 23.3 °F 10.4 °F 47% 30.29 in 10.0 mi NNE 4.6 mph - N/A   Clear
7:35 PM 26.6 °F 21.2 °F 12.2 °F 55% 30.30 in 10.0 mi NNE 4.6 mph - N/A   Clear
7:55 PM 26.6 °F 22.6 °F 12.2 °F 55% 30.31 in 10.0 mi NNE 3.5 mph - N/A   Clear
8:15 PM 26.6 °F 22.6 °F 12.2 °F 55% 30.31 in 10.0 mi NNE 3.5 mph - N/A   Clear
8:35 PM 23.0 °F 17.0 °F 12.2 °F 63% 30.31 in 10.0 mi NE 4.6 mph - N/A   Clear
8:55 PM 23.0 °F 17.0 °F 12.2 °F 63% 30.32 in 10.0 mi NNE 4.6 mph - N/A   Clear
9:15 PM 23.0 °F 18.4 °F 12.2 °F 63% 30.31 in 10.0 mi NNE 3.5 mph - N/A   Clear
9:35 PM 23.0 °F 17.0 °F 12.2 °F 63% 30.31 in 10.0 mi NE 4.6 mph - N/A   Clear
9:55 PM 21.2 °F 13.6 °F 12.2 °F 68% 30.30 in 10.0 mi NE 5.8 mph - N/A   Clear
10:15 PM 21.2 °F 13.6 °F 12.2 °F 68% 30.29 in 10.0 mi NE 5.8 mph - N/A   Clear
10:35 PM 19.4 °F 14.3 °F 12.2 °F 74% 30.28 in 10.0 mi NE 3.5 mph - N/A   Clear
10:55 PM 21.2 °F 14.9 °F 12.2 °F 68% 30.28 in 10.0 mi ENE 4.6 mph - N/A   Clear
11:15 PM 19.4 °F 14.3 °F 12.2 °F 74% 30.29 in 10.0 mi North 3.5 mph - N/A   Clear
11:35 PM 19.4 °F - 12.2 °F 74% 30.28 in 10.0 mi Calm Calm - N/A   Clear
11:55 PM 19.4 °F - 12.2 °F 74% 30.28 in 10.0 mi Calm Calm - N/A   Clear